Overview Statistics Trail Chart Weather Telemetry Raw packets
 

This is the latest recevied weather packets stored in our database for station/object W5MAI. If no packets are shown the sender has not sent any weather packets the latest 10 day(s).

<< 4 5 6 7 8 9 10 >>
Time Temp. Humidity Pressure Rain* Wind** Luminosity Snow
1788573233 28.89° C 66% 1014.9 hPa 0 mm - 0 W/m² -
1788572654 28.89° C 66% 1014.8 hPa 0 mm - 0 W/m² -
1788572019 29.44° C 65% 1014.8 hPa 0 mm - 0 W/m² -
1788571439 29.44° C 64% 1014.7 hPa 0 mm - 0 W/m² -
1788570803 29.44° C 64% 1014.6 hPa 0 mm - 0 W/m² -
1788570238 30° C 63% 1014.4 hPa 0 mm - 0 W/m² -
1788569662 30.56° C 61% 1014.4 hPa 0 mm - 0 W/m² -
1788569026 30.56° C 59% 1014.3 hPa 0 mm - 5 W/m² -
1788568458 31.11° C 58% 1014.4 hPa 0 mm - 9 W/m² -
1788567223 31.67° C 57% 1014.2 hPa 0 mm - 21 W/m² -
1788566657 32.22° C 57% 1013.8 hPa 0 mm - 86 W/m² -
1788565426 32.22° C 55% 1013.7 hPa 0 mm - 176 W/m² -
1788564859 32.78° C 54% 1013.6 hPa 0 mm - 206 W/m² -
1788564217 32.78° C 52% 1013.7 hPa 0 mm - 246 W/m² -
1788563616 32.78° C 51% 1013.7 hPa 0 mm - 278 W/m² -
1788563035 32.22° C 53% 1013.9 hPa 0 mm - 313 W/m² -
1788562461 32.22° C 56% 1013.7 hPa 0 mm - 352 W/m² -
1788560627 32.78° C 58% 1014.1 hPa 0 mm - 461 W/m² -
1788560028 32.22° C 58% 1014.1 hPa 0 mm - 494 W/m² -
1788559427 32.22° C 58% 1014.2 hPa 0 mm - 580 W/m² -
1788558826 32.22° C 59% 1014.1 hPa 0 mm - 591 W/m² -
1788558256 32.22° C 60% 1014.5 hPa 0 mm - 394 W/m² -
1788556419 31.11° C 61% 1015 hPa 0 mm - 260 W/m² -
1788555832 31.67° C 61% 1015.2 hPa 0 mm - 264 W/m² -
1788555262 31.67° C 62% 1015.1 hPa 0 mm - 339 W/m² -

* Rain latest hour (hover to see other rain measurements)
** Current wind speed in m/s (hover to see current wind gust speed)